Showing default

YAOGAN 29, 41038

Orbit data source: Space-Track

YAOGAN 29, 41038 is a payload satellite owned by PLA GAD (CN) in SSO that was launched on Thu, 26 Nov 2015 UTC via a CHANG ZHENG 4C launch vehicle from the Taiyaun Space Center, China (TSC). Payload-class satellites include a variety of spacecraft equipped with specific instruments for various scientific and technological missions. These include communications satellites like Starlink; space stations such as the ISS; scientific satellites like the Hubble; Earth observation satellites from companies like Planet Labs, Umbra, and HawkEye 360; GPS; miniature CubeSats for education and research; and military/defense satellites.

Loading next visibility...
Identifier
41038, 2015-069A
Orbit
SSO
Last TLE update
7 hours ago
Origin
Manufacturer
SAST
Mission
Operational Defense Radar Imaging
Bus & Motor
JB-9, Unknown motor
Mass
1,040 kg wet, 1,040 kg dry
Launch date (UTC)
2015-11-26 (10 years ago)
Launch vehicle
CHANG ZHENG 4C
Launch site
Taiyaun Space Center, China (TSC)
Object type
Payload
Rocket body
Debris
Shape & HBR
Box + 2 Pan, 5 m
Radar Cross Section
4.795 m², Large (>1 m²)

Expand to show TLE details & history

TLE from 7 hours ago
0 YAOGAN 29
1 41038U 15069A   25183.57804459  .00000332  00000-0  47877-4 0  9993
2 41038  98.0336 206.0694 0002951  86.1687 273.9863 14.82655506518810
Epoch: 2025-07-02T13:52Z
TLE epoch observation values (Epoch: 2025-07-02T13:52:23.052Z)
Latitude
-0.00006°
Longitude
77.11622°
Altitude
623.833 km
Speed
7.547 km/s
True Right ascension
13h 44m 16s
True Declination
0° 00' 00"
Sunlit
Object was in daylight at epoch
Visualization orbit readout
Latitude
-20.90895°
Longitude
-105.64905°
Altitude
629.837 km
Speed
7.542 km/s
Apparent Right ascension
23h 38m 44s
Apparent Declination
-34° 35' 03"
Sunlit
Object is in daylight
Visualization observer readout
Local Sidereal Time
08:59:27
Azimuth
266.787° W
Elevation
-58.127°
Doppler factor
1
Orbital elements
Apogee altitude
620.062 km
Perigee altitude
615.933 km
Semi-major axis
6,996.135 km
Eccentricity
0.0003
Inclination
98.0336°
RAAN
206.0694°
Arg. of periapsis
86.1687°
True anomaly
Unknown
Mean anomaly
273.9863°
Eccentric anomaly
Unknown
Mean motion
3.70899 °/min
Orbital period
97.06 mins
BSTAR
0.000047877
Loading maneuver chart data...
Loading SW <> Apogee altitude chart data...
Loading historical data...
Loading historical data...
Loading historical data...
Loading historical data...
Loading historical data...
Loading historical data...
Loading historical data...
Other satellites on launch #69 in the year 2015 (2015-11-26 UTC)

YAOGAN 29 Visibility forecast

Observer location: undefined°, undefined°

Span
Click to sort rows by Start time (UTC) header in descending order
Start Az.
Max El. time (UTC)
Max El. Az.
Max El.
End time (UTC)
End Az.
7 mins2025-07-03 01:20:17.599Z155.579° SSE2025-07-03 01:23:17.599Z109.581° ESE41.989°2025-07-03 01:27:17.599Z353.774° N
6 mins2025-07-03 14:45:17.599Z352.872° N2025-07-03 14:47:17.599Z298.672° NW38.842°2025-07-03 14:51:17.599Z210.782° SW
|